Location: Le Petit-Vavre
(46.5081°N, 1.5239°E)
Time: 15:01:25
(UTC+00:00)

COSMOS 2428 - Pass Details

Date: 03 March 2021
Orbit: 845 x 858 km, 70.9° (Epoch: 20 April)

Event Time Altitude Azimuth Distance (km) Brightness Sun altitude
Rises 21:00:12 0° 226° (SW) 3,394 6.0 -33.6°
Reaches altitude 10° 21:02:45 10° 232° (SW) 2,464 5.3 -34.0°
Enters shadow 21:07:07 40° 276° (W) 1,228 3.8 -34.6°
Exits shadow 21:13:52 - 18° (NNE) 2,581 5.4 -35.6°
Sets 21:16:11 0° 24° (NNE) 3,424 6.0 -35.9°
